Torna al catalogo

FENGYUN 1C DEB

AttivoPO
NORAD 30868·DEBRIS·🇨🇳 China

Lanciato May 10, 1999 da Taiyuan Satellite Launch Center

Loading…

Prossimi Passaggi (prossime 24 ore)

TLE

AggiornatoSource: Space-Track

Epoca: Sep 14, 2026, 10:44 UTC

1 30868U 99025AXE 26257.44768669  .00000087  00000-0  63091-4 0  9990
2 30868  98.2251 118.1827 0136377 139.4242 342.2793 14.11242932  5985

Traccia FENGYUN 1C DEB in tempo reale con AllMySat

Download on the App Store